Location: Nag� el Ma?a??a
(24.0667°N, 32.8833°E)
Time: 21:13:36
(UTC+00:00)

Cosmos 1943 Rocket - Visible Passes

Search period start: 22 January 2022 00:00
Search period end: 01 February 2022 00:00
Orbit: 813 x 842 km, 71.0° (Epoch: 21 January)

Date Brightness Start Highest point End Pass type
(mag) Time Alt. Az. Time Alt. Az. Time Alt. Az.
22 Jan 3.3 02:16:24 33° S 02:16:24 33° S 02:19:19 10° SSE visible
23 Jan 4.2 01:58:43 18° SSE 01:58:43 18° SSE 02:00:07 10° SSE visible
24 Jan 4.9 16:12:50 10° W 16:14:56 12° WNW 16:17:01 10° NW visible
25 Jan 4.8 15:52:41 10° W 15:55:37 14° WNW 15:58:32 10° NNW visible
